Location: Newark
(33.6439°N, 114.9881°W)
Time: 20:26:32
(UTC+00:00)

Tiros 1 - Pass Details

Date: 21 July 2019
Orbit: 631 x 664 km, 48.4° (Epoch: 25 August)

Event Time Altitude Azimuth Distance (km) Brightness Sun altitude
Rises 17:19:13 0° 185° (S) 2,957 10.6 54.9°
Reaches altitude 10° 17:22:31 10° 161° (SSE) 2,057 10.1 55.6°
Maximum altitude 17:25:05 15° 128° (SE) 1,777 10.2 56.1°
Drops below altitude 10° 17:27:40 10° 95° (E) 2,071 10.5 56.6°
Sets 17:30:59 0° 71° (ENE) 2,991 11.0 57.3°
